Location: Dappach
(48.9767°N, 9.6998°E)
Time: 21:46:06
(UTC+00:00)

Cosmos 1295 Rocket - Pass Details

Date: 23 May 2024
Orbit: 943 x 993 km, 82.9° (Epoch: 14 June)

Event Time Altitude Azimuth Distance (km) Brightness Sun altitude
Exits shadow 02:32:34 - 188° (S) 3,410 6.9 -8.0°
Reaches altitude 10° 02:34:30 10° 189° (S) 2,676 6.3 -7.8°
Maximum altitude 02:40:38 86° 278° (W) 957 4.5 -7.1°
Drops below altitude 10° 02:46:45 10° 9° (N) 2,675 7.7 -6.3°
Sets 02:49:15 0° 10° (N) 3,622 8.4 -6.0°
